Location: Poughquag
(41.6090°N, 73.6820°W)
Time: 10:48:36
(UTC-05:00)

SR - Pass Details

Date: 16 December 2023
Orbit: 574 x 868 km, 66.7° (Epoch: 25 February)

Event Time Altitude Azimuth Distance (km) Brightness Sun altitude
Rises 07:18:35 0° 172° (S) 3,252 ? -0.3°
Reaches altitude 10° 07:21:19 10° 159° (SSE) 2,374 ? 0.2°
Maximum altitude 07:25:42 25° 107° (ESE) 1,637 ? 0.9°
Drops below altitude 10° 07:30:16 10° 54° (NE) 2,493 ? 1.6°
Sets 07:33:11 0° 42° (NE) 3,452 ? 2.0°
